Flag for Norway Weather past 2 weeks in Stjørdal, Norway

Now
64 °F

Sunny.


Feels Like: 64 °F
Forecast: 51 / 73 °F
Wind: 2 mph from Northwest

Location: Trondheim / Vaernes

Current Time: Aug 3, 2015 at 3:46:43 PM

Latest Report: Aug 3, 2015 at 3:00 PM


Visibility: 19 mi

Pressure: 30.12 "Hg

Humidity: 50%

Dew point: 45 °F

Location of StjørdalLocation

Historic Weather in Stjørdal — Graph

°F

Stjørdal temperature yesterday

Maximum temperature yesterday: 59 °F (at 2:00 PM)
Minimum temperature yesterday: 45 °F (at 4:00 AM)
Average temperature yesterday: 54 °F

Past Weeks' High & Low Weather Summary

 TemperatureHumidityPressure
High67 °F (Jul 21, 1:00 PM)97% (Jul 24, 5:00 AM)30.16 "Hg (Jul 24, 5:00 AM)
Low44 °F (Jul 28, 5:00 AM)42% (Aug 1, 6:00 PM)29.35 "Hg (Jul 27, 3:00 AM)
Average55 °F77%29.73 "Hg
* Reported Jul 19 2:00 PM — Aug 3 2:00 PM, Stjørdal, Weather by CustomWeather, © 2015

Note: Actual official high and low records may vary slightly from our data, if they occured in-between our weather recording intervals... More about our weather records

Advertising

Stjørdal weather history for previous 24 hours

 ConditionsComfort  
Time TempWeatherWind HumidityBarometerVisibility
2:00 PM
Mon, Aug 3
62 °FScattered clouds.2 mph51%30.14 "Hg31 mi
1:00 PM60 °FOvercast.1 mph53%30.14 "Hg22 mi
12:00 PM60 °FSunny.3 mph61%30.16 "Hg22 mi
11:00 AM57 °FSunny.2 mph67%30.16 "Hg19 mi
10:00 AM56 °FPassing clouds.2 mph79%30.16 "Hg18 mi
9:00 AM56 °FSunny.1 mph79%30.15 "Hg22 mi
8:00 AM52 °FScattered clouds.1 mph85%30.15 "Hg25 mi
7:00 AM51 °FOvercast.No wind90%30.16 "Hg6 mi
4:00 AM51 °FOvercast.5 mph87%30.15 "Hg31 mi
3:00 AM52 °FOvercast.5 mph84%30.14 "Hg31 mi
2:00 AM53 °FOvercast.6 mph83%30.13 "Hg17 mi
1:00 AM53 °FOvercast.7 mph83%30.12 "Hg28 mi
12:00 AM53 °FOvercast.6 mph80%30.11 "Hg31 mi
10:00 PM
Sun, Aug 2
55 °FOvercast.9 mph75%30.07 "Hg31 mi
9:00 PM56 °FPassing clouds.10 mph72%30.05 "Hg28 mi
8:00 PM56 °FPartly sunny.10 mph74%30.03 "Hg19 mi
7:00 PM57 °FOvercast.12 mph74%30.01 "Hg22 mi
6:00 PM56 °FRain showers. Partly sunny.12 mph77%30.00 "Hg13 mi
5:00 PM57 °FOvercast.13 mph76%29.97 "Hg10 mi
4:00 PM57 °FOvercast.12 mph76%29.96 "Hg19 mi
3:00 PM58 °FOvercast.12 mph75%29.93 "Hg19 mi
Weather by CustomWeather, © 2015

See weather overviewHow to use our weather pages